Hourly Data Report for October 25, 2014

All times are specified in Local Standard Time (LST). Add 1 hour to adjust for Daylight Saving Time where and when it is observed.

RANKIN INLET A
NUNAVUT

62°48'38.000" N
92°06'53.000" W
32.30 m
2303405
71083
YRT

Download Data

Hourly Data (October 2014)
Hourly Data Report for October 25, 2014
Temp Definition
°C
Dew Point Temp Definition
°C
Rel Hum Definition
%
Wind Dir Definition
10's deg

Wind Spd Definition
km/h
Visibility Definition
km
Stn Press Definition
kPa
Hmdx Definition


Wind Chill Definition


Weather Definition


TIME
00:00 Legend Double Dagger -1.0 -4.4 78 9 45 19.3 100.18   -9 Cloudy
01:00 Legend Double Dagger -1.7 -3.4 88 8 33 19.3 100.14   -9 LegendNANA
02:00 Legend Double Dagger -1.7 -3.0 91 9 35 6.4 100.11   -9 Snow
03:00 Legend Double Dagger -1.4 -2.8 90 8 38 6.4 100.09   -9 Snow
04:00 Legend Double Dagger -1.5 -2.8 91 8 40 4.8 100.06   -9 Snow
05:00 Legend Double Dagger -1.3 -3.3 86 8 36 4.8 100.05   -9 Snow
06:00 Legend Double Dagger -1.5 -2.9 90 8 36 4.8 100.05   -9 Snow
07:00 Legend Double Dagger -1.4 -3.0 89 8 39 6.4 100.03   -9 Snow
08:00 Legend Double Dagger -1.4 -3.3 87 7 35 8.1 100.05   -9 Snow,Blowing Snow
09:00 Legend Double Dagger -1.5 -3.4 87 7 33 8.1 100.07   -9 Snow,Blowing Snow
10:00 Legend Double Dagger -1.4 -3.1 88 7 29 8.1 100.07   -8 Snow,Blowing Snow
11:00 Legend Double Dagger -1.4 -3.4 86 7 37 12.9 100.05   -9 Snow,Blowing Snow
12:00 Legend Double Dagger -1.4 -3.3 87 6 30 8.1 100.05   -8 Snow,Blowing Snow
13:00 Legend Double Dagger -1.4 -3.1 88 6 28 12.9 100.07   -8 Snow,Blowing Snow
14:00 Legend Double Dagger -1.3 -2.9 89 6 29 6.4 100.11   -8 Snow,Blowing Snow
15:00 Legend Double Dagger -1.3 -2.7 90 6 28 6.4 100.14   -8 Snow,Blowing Snow
16:00 Legend Double Dagger -1.2 -2.6 90 6 30 12.9 100.15   -8 Snow,Blowing Snow
17:00 Legend Double Dagger -1.2 -2.6 90 6 27 12.9 100.16   -8 Snow,Blowing Snow
18:00 Legend Double Dagger -1.2 -2.3 92 5 26 4.8 100.18   -8 Snow,Blowing Snow
19:00 Legend Double Dagger -1.2 -2.2 93 5 22 3.2 100.18   -7 Snow,Blowing Snow
20:00 Legend Double Dagger -1.1 -1.9 94 6 28 3.2 100.15   -8 Snow,Blowing Snow
21:00 Legend Double Dagger -0.9 -1.8 94 6 19 3.2 100.16   -6 Snow,Blowing Snow
22:00 Legend Double Dagger -0.8 -1.5 95 6 17 3.2 100.16   -6 Snow
23:00 Legend Double Dagger -0.7 -1.4 95 7 16 3.2 100.18   -5 Snow

Notes on Data Quality.

Legend

  • E = Estimated
  • M = Missing
  • NA = Not Available
  • ‡ = Partner data that is not subject to review by the National Climate Archives
Date modified: